K8JWL-13 Weather Reports


Display with metric or nautical units.
time (UTC)temp
F
wind
direction
speed
MPH
gust
MPH
rain 1hr
in
rain 24hr
in
rain mn
in
humidity
%
barometer
mb
20260504130739 55 318 4.0 0.0 157.50 0.00 0.00 66 1009.8
20260504130612 55 159 4.0 0.0 157.50 0.00 0.00 67 1009.8
20260504130239 55 159 4.0 0.0 157.50 0.00 0.00 67 1009.8
20260504120239 51 231 2.0 0.0 157.50 0.00 0.00 72 1010.0
20260504110239 48 136 1.0 0.0 157.50 0.00 0.00 76 1009.7
20260504100239 49 135 1.0 0.0 157.50 0.00 0.00 73 1010.0
20260504081739 51 167 2.0 0.0 157.50 0.00 0.00 69 1010.8
20260504081239 51 170 3.0 0.0 157.50 0.00 0.00 69 1010.8
20260504080739 51 194 3.0 0.0 157.50 0.00 0.00 68 1010.8
20260504080239 52 150 2.0 0.0 157.50 0.00 0.00 68 1010.8
20260504070239 52 242 2.0 0.0 157.50 0.00 0.00 67 1011.5
20260504060239 53 194 5.0 0.0 157.50 0.00 0.00 64 1012.0
20260504050739 52 127 1.0 0.0 157.50 0.00 0.00 65 1012.7
20260504050239 52 181 3.0 0.0 157.50 0.00 0.00 65 1012.7
20260504045739 52 215 2.0 0.0 157.50 0.00 0.00 66 1012.7
20260504045240 52 186 2.0 0.0 157.50 0.00 0.00 66 1012.8
20260504044739 52 179 3.0 0.0 157.50 0.00 0.00 67 1012.8
20260504044239 52 174 6.0 0.0 157.50 0.00 0.00 67 1012.7
20260504043739 52 221 3.0 0.0 157.50 0.00 0.00 67 1012.8
20260504043239 52 89 3.0 0.0 157.50 0.00 0.00 68 1012.8
20260504042739 52 113 3.0 0.0 157.50 0.00 0.00 68 1012.9
20260504042239 52 180 2.0 0.0 157.50 0.00 0.00 68 1012.9
20260504041739 52 152 1.0 0.0 157.50 0.00 0.00 68 1012.9
20260504041239 52 248 1.0 0.0 157.50 0.00 0.00 69 1013.0
20260504040739 52 169 2.0 0.0 157.50 0.00 0.00 69 1013.0
20260504040240 52 210 1.0 0.0 157.50 0.00 0.00 70 1013.0
20260504035739 52 212 0.0 0.0 157.50 0.00 0.00 70 1013.1
20260504035239 52 316 1.0 0.0 157.50 0.00 0.00 70 1013.2
20260504034739 52 146 1.0 0.0 157.50 0.00 0.00 70 1013.2
20260504034239 51 184 2.0 0.0 157.50 0.00 0.00 70 1013.3
20260504033739 52 172 1.0 0.0 157.50 0.00 0.00 70 1013.3
20260504033239 51 129 2.0 0.0 157.50 0.00 0.00 70 1013.3
20260504032739 51 212 3.0 0.0 157.50 0.00 0.00 70 1013.3
20260504032239 52 307 1.0 0.0 157.50 0.00 0.00 70 1013.3
20260504031738 52 153 1.0 0.0 157.50 0.00 0.00 70 1013.4
20260504031239 51 314 0.0 0.0 157.50 0.00 0.00 70 1013.4
20260504030738 51 197 0.0 0.0 157.50 0.00 0.00 70 1013.5
20260504030238 51 271 1.0 0.0 157.50 0.00 0.00 69 1013.5
20260504025739 51 208 2.0 0.0 157.50 0.00 0.00 69 1013.5
20260504025239 51 177 1.0 0.0 157.50 0.00 0.00 69 1013.5
20260504024738 51 194 3.0 0.0 157.50 0.00 0.00 70 1013.6
20260504024239 51 174 3.0 0.0 157.50 0.00 0.00 69 1013.6
20260504023738 51 163 3.0 0.0 157.50 0.00 0.00 69 1013.7
20260504023238 51 152 0.0 0.0 157.50 0.00 0.00 69 1013.7
20260504022739 51 152 0.0 0.0 157.50 0.00 0.00 69 1013.8
20260504022239 51 309 1.0 0.0 157.50 0.00 0.00 70 1013.9
20260504021738 51 162 2.0 0.0 157.50 0.00 0.00 70 1013.8
20260504021239 51 179 3.0 0.0 157.50 0.00 0.00 69 1013.8
20260504020738 51 142 1.0 0.0 157.50 0.00 0.00 70 1013.8
20260504020238 51 183 2.0 0.0 157.50 0.00 0.00 70 1013.8
20260504015739 51 163 0.0 0.0 157.50 0.00 0.00 70 1013.7
20260504015238 51 155 1.0 0.0 157.50 0.00 0.00 71 1013.6
20260504014738 51 194 4.0 0.0 157.50 0.00 0.00 71 1013.6
20260504013238 51 212 2.0 0.0 157.50 0.00 0.00 70 1013.9
20260504012739 51 221 4.0 0.0 157.50 0.00 0.00 70 1014.0
20260504012239 51 179 1.0 0.0 157.50 0.00 0.00 70 1014.0
20260504011738 51 190 3.0 0.0 157.50 0.00 0.00 70 1013.9
20260504011239 51 145 2.0 0.0 157.50 0.00 0.00 70 1013.8
20260504010738 51 62 0.0 0.0 157.50 0.00 0.00 70 1013.7
20260504010238 52 238 2.0 0.0 157.50 0.00 0.00 70 1013.7
20260504005740 52 194 4.0 0.0 157.50 0.00 0.00 70 1013.7
20260504005238 52 176 3.0 0.0 157.50 0.00 0.00 69 1013.7
20260504004738 52 153 2.0 0.0 157.50 0.00 0.00 69 1013.6
20260504004239 52 163 0.0 0.0 157.50 0.00 0.00 68 1013.7
20260504003738 52 170 0.0 0.0 157.50 0.00 0.00 68 1013.7
20260504003238 52 191 0.0 0.0 157.50 0.00 0.00 67 1013.7
20260504002739 52 135 0.0 0.0 157.50 0.00 0.00 67 1013.7
20260504002238 52 204 1.0 0.0 157.50 0.00 0.00 67 1013.8
20260504001738 52 100 1.0 0.0 157.50 0.00 0.00 67 1013.8
20260504001239 52 198 1.0 0.0 157.50 0.00 0.00 67 1013.9
20260504000738 52 183 3.0 0.0 157.50 0.00 0.00 66 1013.9
20260504000157 53 210 2.0 0.0 157.50 0.00 0.00 66 1014.2
20260503235739 53 210 2.0 0.0 157.50 0.00 0.00 66 1014.2
20260503235238 53 210 1.0 0.0 157.50 0.00 0.00 66 1014.2
20260503234738 53 170 1.0 0.0 157.50 0.00 0.00 65 1014.3
20260503234239 53 226 1.0 0.0 157.50 0.00 0.00 64 1014.5
20260503233738 53 298 3.0 0.0 157.50 0.00 0.00 62 1014.5
20260503233239 53 287 7.0 0.0 157.50 0.00 0.00 62 1014.7
20260503232739 54 215 4.0 0.0 157.50 0.00 0.00 61 1014.8
20260503232238 54 270 7.0 0.0 157.50 0.00 0.00 60 1014.7
20260503231738 55 285 7.0 0.0 157.50 0.00 0.00 59 1014.7
20260503231239 55 235 8.0 0.0 157.50 0.00 0.00 58 1014.6
20260503230238 56 212 7.0 0.0 157.50 0.00 0.00 56 1014.8
20260503225739 56 269 10.0 0.0 157.50 0.00 0.00 54 1014.8
20260503225238 57 338 7.0 0.0 157.50 0.00 0.00 51 1014.8
20260503224738 58 312 5.0 0.0 157.50 0.00 0.00 48 1014.7
20260503224239 58 245 6.0 0.0 157.50 0.00 0.00 45 1014.5
20260503223738 59 249 7.0 0.0 157.50 0.00 0.00 42 1014.5
20260503223238 60 278 8.0 0.0 157.50 0.00 0.00 39 1014.4
20260503222739 60 295 6.0 0.0 157.50 0.00 0.00 38 1014.3
20260503222238 61 312 8.0 0.0 157.50 0.00 0.00 38 1014.3
20260503221740 61 84 2.0 0.0 157.50 0.00 0.00 38 1014.3
20260503221239 61 248 5.0 0.0 157.50 0.00 0.00 37 1014.3
20260503221138 62 300 6.0 0.0 157.50 0.00 0.00 36 1014.2
20260503220739 61 305 6.0 0.0 157.50 0.00 0.00 37 1014.2
20260503220442 62 245 4.0 0.0 157.50 0.00 0.00 36 1014.2
20260503215739 62 300 6.0 0.0 157.50 0.00 0.00 36 1014.2
20260503215238 62 245 4.0 0.0 157.50 0.00 0.00 36 1014.2
20260503214738 62 246 9.0 0.0 157.50 0.00 0.00 35 1014.2
20260503214705 62 248 11.0 0.0 157.50 0.00 0.00 36 1014.3
20260503214239 62 248 11.0 0.0 157.50 0.00 0.00 36 1014.3
20260503213945 62 321 3.0 0.0 157.50 0.00 0.00 35 1014.3
20260503213738 62 321 3.0 0.0 157.50 0.00 0.00 35 1014.3
20260503213238 62 350 5.0 0.0 157.50 0.00 0.00 36 1014.3
20260503212739 62 291 5.0 0.0 157.50 0.00 0.00 37 1014.4
20260503211739 63 288 7.0 0.0 157.50 0.00 0.00 35 1014.5
20260503211239 63 288 7.0 0.0 157.50 0.00 0.00 35 1014.5
20260503210738 63 262 4.0 0.0 157.50 0.00 0.00 35 1014.5
20260503210627 64 232 6.0 0.0 157.50 0.00 0.00 35 1014.5
20260503210238 63 239 3.0 0.0 157.50 0.00 0.00 33 1014.6
20260503205739 64 232 6.0 0.0 157.50 0.00 0.00 35 1014.5
20260503205306 64 266 4.0 0.0 157.50 0.00 0.00 32 1014.7
20260503204738 64 266 4.0 0.0 157.50 0.00 0.00 32 1014.7
20260503204239 64 183 4.0 0.0 157.50 0.00 0.00 34 1014.8
20260503203738 64 260 10.0 0.0 157.50 0.00 0.00 36 1014.9
20260503203238 64 309 4.0 0.0 157.50 0.00 0.00 35 1015.0
20260503203219 65 260 3.0 0.0 157.50 0.00 0.00 34 1015.0
20260503202739 64 232 3.0 0.0 157.50 0.00 0.00 31 1015.0
20260503201738 65 260 3.0 0.0 157.50 0.00 0.00 34 1015.0
20260503201239 65 259 8.0 0.0 157.50 0.00 0.00 32 1015.0
20260503200453 66 257 3.0 0.0 157.50 0.00 0.00 33 1015.1
20260503200238 66 257 3.0 0.0 157.50 0.00 0.00 33 1015.1
20260503195739 66 274 6.0 0.0 157.50 0.00 0.00 33 1015.1
20260503195420 66 208 6.0 0.0 157.50 0.00 0.00 31 1015.3
20260503195238 66 270 4.0 0.0 157.50 0.00 0.00 30 1015.3
20260503194738 66 174 2.0 0.0 157.50 0.00 0.00 32 1015.4
20260503194239 66 208 6.0 0.0 157.50 0.00 0.00 31 1015.3
20260503193730 66 235 6.0 0.0 157.50 0.00 0.00 33 1015.5
20260503193238 66 235 6.0 0.0 157.50 0.00 0.00 33 1015.5
20260503192944 65 257 4.0 0.0 157.50 0.00 0.00 35 1015.9
20260503192738 65 295 7.0 0.0 157.50 0.00 0.00 31 1015.8
20260503192238 65 215 6.0 0.0 157.50 0.00 0.00 33 1015.7
20260503191738 65 257 4.0 0.0 157.50 0.00 0.00 35 1015.9
20260503191347 65 224 7.0 0.0 157.50 0.00 0.00 34 1016.0
20260503190738 65 224 7.0 0.0 157.50 0.00 0.00 34 1016.0
20260503190238 65 249 10.0 0.0 157.50 0.00 0.00 35 1016.0
20260503185739 64 249 12.0 0.0 157.50 0.00 0.00 31 1016.2
20260503185238 64 217 6.0 0.0 157.50 0.00 0.00 35 1016.3
20260503184738 65 290 4.0 0.0 157.50 0.00 0.00 32 1016.3
20260503184428 65 319 3.0 0.0 157.50 0.00 0.00 32 1016.4
20260503184238 65 319 3.0 0.0 157.50 0.00 0.00 32 1016.4
20260503184017 65 80 6.0 0.0 157.50 0.00 0.00 33 1016.5
20260503183738 65 80 6.0 0.0 157.50 0.00 0.00 33 1016.5
20260503183238 65 302 2.0 0.0 157.50 0.00 0.00 31 1016.5
20260503182238 63 284 11.0 0.0 157.50 0.00 0.00 34 1016.6
20260503181738 63 217 7.0 0.0 157.50 0.00 0.00 34 1016.7
20260503181238 62 266 7.0 0.0 157.50 0.00 0.00 36 1016.7
20260503180738 62 214 11.0 0.0 157.50 0.00 0.00 35 1016.8
20260503180238 62 276 9.0 0.0 157.50 0.00 0.00 36 1016.8
20260503175738 62 260 9.0 0.0 157.50 0.00 0.00 36 1016.9
20260503175238 61 326 5.0 0.0 157.50 0.00 0.00 35 1017.0
20260503174738 61 359 7.0 0.0 157.50 0.00 0.00 36 1017.1
20260503174238 60 38 7.0 0.0 157.50 0.00 0.00 37 1017.2
20260503173739 60 211 2.0 0.0 157.50 0.00 0.00 37 1017.2
20260503173238 60 271 4.0 0.0 157.50 0.00 0.00 38 1017.3
20260503173015 60 225 6.0 0.0 157.50 0.00 0.00 37 1017.3
20260503172238 60 225 6.0 0.0 157.50 0.00 0.00 37 1017.3
20260503171238 60 291 9.0 0.0 157.50 0.00 0.00 38 1017.5
20260503170238 59 232 1.0 0.0 157.50 0.00 0.00 42 1017.6
20260503150738 54 312 5.0 0.0 157.50 0.00 0.00 46 1018.3
20260503150238 54 273 7.0 0.0 157.50 0.00 0.00 50 1018.3
20260503140237 49 314 8.0 0.0 157.50 0.00 0.00 58 1018.5